sat.trackr.live / text

‹ back to catalog

ONEWEB-0325

NORAD 49194 · 2021-083J

PAYLOAD ACTIVE UNKNOWN

§ Identity

Operator
Country
UK
Launch date
2021-09-14
Launch site
TYMSC
Launch vehicle
Mass (kg)
RCS (m²)

Purposes: comms

External: N2YO · Heavens-Above · Gunter

§ Orbital elements

Epoch: 2026-05-25T01:43:51.073824Z

Period
109.20 min
Inclination
87.9161°
Eccentricity
0.0001874
Mean motion
13.18685852 rev/d
Perigee alt
1,188.3 km
Apogee alt
1,191.2 km
Semi-major
7,567.9 km
B*
-1.0723e-4
RAAN
340.0597°
Arg perigee
86.6088°
Mean anomaly
273.5258°
Rev number
22,696

§ Raw data

ONEWEB-03251 49194U 21083J   26145.07211891 -.00000029  00000+0 -10723-3 0  99962 49194  87.9161 340.0597 0001874  86.6088 273.5258 13.18685852226969

JSON: /api/v1/satellites/49194 · /tle

For live sub-satellite position, see the globe view (requires WebGL).

§ Visibility from observer

Set your observer location to see the next 7 days of passes ≥ 10°. The values pass through the URL so the page stays shareable.

No JS? Fill the form by hand. The geolocation button needs JavaScript.